Abilene, TX

4:18 AM CST on December 14, 2017 (GMT -0600)
Abilene Regional

Weather History for KABI - October, 2011

Change the Weather History Date:

Tuesday, October 4, 2011

  Actual Average Record
Temperature  
Mean Temperature 70 °F 69 °F  
Max Temperature 85 °F 81 °F 98 °F (1951)
Min Temperature 55 °F 58 °F 43 °F (1902)
Degree Days  
Heating Degree Days 0 1  
Month to date heating degree days 0 4  
Since 1 July heating degree days 0 15  
Cooling Degree Days 5 6  
Month to date cooling degree days 25 25  
Year to date cooling degree days 3367 2296  
Growing Degree Days 20 (Base 50)    
Moisture  
Dew Point 38 °F    
Average Humidity 37    
Maximum Humidity 59    
Minimum Humidity 15    
Precipitation  
Precipitation 0.00 in 0.08 in 2.09 in (1986)
Month to date precipitation 0.00 0.34  
Year to date precipitation 10.63 19.54  
Sea Level Pressure  
Sea Level Pressure 30.10 in    
Wind  
Wind Speed 10 mph (SSE)    
Max Wind Speed 21 mph    
Max Gust Speed 33 mph    
Visibility 10 miles    
Events      
T = Trace of Precipitation, MM = Missing Value Source: NWS Daily Summary

Daily Weather History Graph

Daily Weather History Graph

Search for Another Location

Airport or City:

Trip Planner

Search our weather history database for the weather conditions in past years. The results will help you decide how hot, cold, wet, or windy it might be!

Date:

Astronomy

Oct. 04, 2011 Rise Set
Actual Time 7:34 AM CDT 7:19 PM CDT
Civil Twilight 7:10 AM CDT 7:44 PM CDT
Nautical Twilight 6:41 AM CDT 8:12 PM CDT
Astronomical Twilight 6:13 AM CDT 8:41 PM CDT
Moon 3:01 PM CDT (10/4) 12:42 AM CDT (10/4)
Length of Visible Light 12h 34m
Length of Day
11h 45m
First Quarter, 56% of the Moon is Illuminated
Oct 4
First Quarter
Oct 11
Full
Oct 19
Last Quarter
Oct 26
New
Nov 2
First Quarter

Hourly Weather History & Observations

Time (CDT) Temp. Dew Point Humidity Pressure Visibility Wind Dir Wind Speed Gust Speed Precip Events Conditions
12:52 AM 66.9 °F 39.0 °F 36% 30.11 in 10.0 mi SSE 9.2 mph - N/A   Clear
1:52 AM 63.0 °F 39.0 °F 41% 30.11 in 10.0 mi Calm Calm - N/A   Clear
2:52 AM 64.9 °F 39.9 °F 40% 30.11 in 10.0 mi SSE 9.2 mph - N/A   Clear
3:52 AM 62.1 °F 39.9 °F 44% 30.09 in 10.0 mi South 3.5 mph - N/A   Clear
4:52 AM 62.1 °F 39.9 °F 44% 30.09 in 10.0 mi SSE 4.6 mph - N/A   Clear
5:52 AM 59.0 °F 39.9 °F 49% 30.11 in 10.0 mi SSE 5.8 mph - N/A   Clear
6:52 AM 55.9 °F 39.9 °F 55% 30.13 in 10.0 mi SSE 5.8 mph - N/A   Clear
7:52 AM 55.9 °F 41.0 °F 57% 30.16 in 10.0 mi SSE 6.9 mph - N/A   Clear
8:52 AM 62.1 °F 42.1 °F 48% 30.17 in 10.0 mi South 8.1 mph - N/A   Clear
9:52 AM 71.1 °F 48.0 °F 44% 30.19 in 10.0 mi South 12.7 mph - N/A   Clear
10:52 AM 73.9 °F 46.9 °F 38% 30.18 in 10.0 mi South 12.7 mph - N/A   Clear
11:52 AM 78.1 °F 46.0 °F 32% 30.16 in 10.0 mi SSE 11.5 mph 16.1 mph N/A   Clear
12:52 PM 82.0 °F 42.1 °F 24% 30.13 in 10.0 mi SE 12.7 mph 21.9 mph N/A   Clear
1:52 PM 82.9 °F 39.9 °F 22% 30.11 in 10.0 mi SSE 15.0 mph 24.2 mph N/A   Clear
2:52 PM 84.0 °F 37.9 °F 19% 30.07 in 10.0 mi SE 18.4 mph 25.3 mph N/A   Clear
3:52 PM 84.0 °F 37.0 °F 19% 30.05 in 10.0 mi SE 15.0 mph 21.9 mph N/A   Clear
4:52 PM 84.0 °F 33.1 °F 16% 30.03 in 10.0 mi SSE 18.4 mph 33.4 mph N/A   Clear
5:52 PM 82.9 °F 30.9 °F 15% 30.03 in 10.0 mi SSE 16.1 mph 23.0 mph N/A   Clear
6:52 PM 81.0 °F 30.0 °F 16% 30.03 in 10.0 mi SSE 11.5 mph - N/A   Clear
7:52 PM 75.0 °F 28.9 °F 18% 30.04 in 10.0 mi SSE 9.2 mph - N/A   Clear
8:52 PM 71.1 °F 28.0 °F 20% 30.05 in 10.0 mi SE 9.2 mph - N/A   Clear
9:52 PM 66.9 °F 30.0 °F 25% 30.05 in 10.0 mi SE 11.5 mph - N/A   Clear
10:52 PM 66.9 °F 33.1 °F 28% 30.05 in 10.0 mi SE 10.4 mph - N/A   Clear
11:52 PM 68.0 °F 37.0 °F 32% 30.04 in 10.0 mi SE 12.7 mph - N/A   Clear